Back to catalog

COSMOS 970 DEB

AliveLEO
NORAD 10879·DEBRIS·🇷🇺 Russia

Launched Dec 21, 1977 from Baikonur Cosmodrome

Loading…

Next Passes (next 24 hours)

TLE

FreshSource: Space-Track

Epoch: Sep 14, 2026, 08:20 UTC

1 10879U 77121AA  26257.34766223  .00000229  00000-0  29954-3 0  9993
2 10879  65.8246 247.3780 0109423  95.9075 265.4473 13.77128544642873

Track COSMOS 970 DEB in real time with AllMySat

Download on the App Store